This is the latest recevied weather packets stored in our database for station/object YF9UAG-17. If no packets are shown the sender has not sent any weather packets the latest 10 day(s).
| Time | Temp. | Humidity | Pressure | Rain* | Wind** | Luminosity | Snow |
|---|---|---|---|---|---|---|---|
| 1787455590 | 28.89° C | 56% | 1033.7 hPa | - | - | - | - |
| 1787454987 | 28.89° C | 55% | 1033.8 hPa | - | - | - | - |
| 1787454384 | 28.89° C | 53% | 1033.9 hPa | - | - | - | - |
| 1787453781 | 28.33° C | 54% | 1034.1 hPa | - | - | - | - |
| 1787453178 | 27.78° C | 56% | 1034.3 hPa | - | - | - | - |
| 1787452575 | 28.33° C | 54% | 1034.5 hPa | - | - | - | - |
| 1787451971 | 28.33° C | 56% | 1034.6 hPa | - | - | - | - |
| 1787451369 | 27.78° C | 55% | 1034.7 hPa | - | - | - | - |
| 1787450765 | 27.78° C | 56% | 1034.8 hPa | - | - | - | - |
| 1787450162 | 27.78° C | 56% | 1034.9 hPa | - | - | - | - |
| 1787449559 | 27.78° C | 55% | 1034.9 hPa | - | - | - | - |
| 1787448956 | 27.78° C | 55% | 1034.9 hPa | - | - | - | - |
| 1787448353 | 27.78° C | 55% | 1034.9 hPa | - | - | - | - |
| 1787447750 | 27.78° C | 55% | 1034.9 hPa | - | - | - | - |
| 1787447146 | 27.78° C | 54% | 1034.9 hPa | - | - | - | - |
| 1787446543 | 27.78° C | 55% | 1034.8 hPa | - | - | - | - |
| 1787445939 | 27.78° C | 58% | 1034.7 hPa | - | - | - | - |
| 1787445336 | 27.78° C | 58% | 1034.6 hPa | - | - | - | - |
| 1787444733 | 27.78° C | 57% | 1034.5 hPa | - | - | - | - |
| 1787444130 | 28.33° C | 57% | 1034.4 hPa | - | - | - | - |
| 1787443527 | 27.78° C | 54% | 1034.3 hPa | - | - | - | - |
| 1787442923 | 28.33° C | 55% | 1034.3 hPa | - | - | - | - |
| 1787442320 | 27.78° C | 53% | 1034.2 hPa | - | - | - | - |
| 1787441716 | 27.22° C | 53% | 1034.1 hPa | - | - | - | - |
| 1787441112 | 27.22° C | 52% | 1034 hPa | - | - | - | - |
* Rain since midnight (hover to see other rain measurements)
** Current wind speed in m/s (hover to see current wind gust speed)